Home > Weather > Ibadan > Past weeks

Flag for Nigeria Past Weather in Ibadan, Nigeria — Yesterday and Last 2 Weeks

Now
75 °F

Passing clouds.


Feels Like: 73 °F
Forecast: 71 / 85 °F
Wind: No wind

Location: Lagos / Ikeja

Current Time: Jun 28, 2016 at 7:16:19 AM

Latest Report: Jun 28, 2016 at 6:00 AM


Visibility: 4 mi

Pressure: 30.01 "Hg

Humidity: 100%

Dew Point: 75 °F

Location of IbadanLocation

Past Weather in Ibadan — Graph

°F

Ibadan Temperature Yesterday

Maximum temperature yesterday: 82 °F (at 12:00 PM)
Minimum temperature yesterday: 75 °F (at 8:00 AM)
Average temperature yesterday: 78 °F

High & Low Weather Summary for the Past Weeks

 TemperatureHumidityPressure
High90 °F (Jun 18, 4:00 PM)100% (Jun 15, 8:00 AM)30.09 "Hg (Jun 15, 8:00 AM)
Low72 °F (Jun 16, 6:00 AM)66% (Jun 16, 4:00 PM)29.89 "Hg (Jun 19, 4:00 PM)
Average79 °F88%30.01 "Hg
* Reported Jun 13 6:00 AM — Jun 28 6:00 AM, Ibadan, Weather by CustomWeather, © 2016

Note: Actual official high and low records may vary slightly from our data, if they occured in-between our weather recording intervals... More about our weather records

Advertising

Ibadan Weather History for the Previous 24 Hours

Scroll right to see more
 ConditionsComfort  
Time TempWeatherWind HumidityBarometerVisibility
6:00 AM
Tue, Jun 28
75 °FPassing clouds.No wind100%30.01 "Hg4 mi
5:00 AM75 °FPassing clouds.2 mph100%30.01 "Hg4 mi
4:00 AM75 °FPassing clouds.2 mph100%30.01 "Hg4 mi
3:00 AM75 °FPassing clouds.No wind100%30.01 "Hg4 mi
2:00 AM77 °FPassing clouds.No wind94%30.04 "Hg4 mi
1:00 AM77 °FPassing clouds.No wind94%30.07 "Hg4 mi
12:00 AM77 °FPassing clouds.No wind94%30.07 "Hg4 mi
11:00 PM
Mon, Jun 27
77 °FPassing clouds.No wind94%30.07 "Hg4 mi
10:00 PM77 °FPassing clouds.No wind94%30.04 "Hg4 mi
8:00 PM77 °FThundershowers. Passing clouds.2 mph94%29.98 "Hg4 mi
7:00 PM77 °FThunderstorms. Passing clouds.6 mph94%29.95 "Hg4 mi
6:00 PM77 °FThunderstorms. Passing clouds.7 mph94%29.95 "Hg4 mi
5:00 PM77 °FPassing clouds.6 mph94%29.98 "Hg4 mi
4:00 PM79 °FPassing clouds.6 mph89%29.98 "Hg5 mi
3:00 PM79 °FScattered clouds.2 mph89%29.98 "Hg5 mi
2:00 PM79 °FDrizzle. Partly sunny.5 mph89%30.01 "Hg5 mi
1:00 PM81 °FLight rain. Partly sunny.3 mph84%30.01 "Hg4 mi
12:00 PM82 °FPartly sunny.6 mph84%30.01 "HgN/A
11:00 AM81 °FPartly sunny.3 mph89%30.04 "HgN/A
10:00 AM79 °FPartly sunny.2 mph94%30.04 "Hg5 mi
9:00 AM77 °FPartly sunny.3 mph94%30.04 "Hg5 mi
8:00 AM75 °FRain. Partly sunny.7 mph100%30.04 "Hg1 mi
7:00 AM77 °FPassing clouds.5 mph94%30.01 "Hg5 mi
Weather by CustomWeather, © 2016

See weather overviewHow to use our weather pages